2023/08/24 00:00:00, 0.3,24.5
2023/08/24 00:10:00, 0.3,24.4
2023/08/24 00:20:00, 0.3,24.1
2023/08/24 00:30:00, 0.3,24.5
2023/08/24 00:40:00, 0.3,24.3
2023/08/24 00:50:00, 0.3,24.5
2023/08/24 01:00:00, 0.2,24.6
2023/08/24 01:10:00, 0.2,24.6
2023/08/24 01:20:00, 0.3,24.5
2023/08/24 01:30:00, 0.2,24.5
2023/08/24 01:40:00, 0.3,24.6
2023/08/24 01:50:00, 0.3,24.3
2023/08/24 02:00:00, 0.3,24.5
2023/08/24 02:10:00, 0.2,24.5
2023/08/24 02:20:00, 0.3,24.4
2023/08/24 02:30:00, 0.3,24.5
2023/08/24 02:40:00, 0.3,24.3
2023/08/24 02:50:00, 2.5,24.3
2023/08/24 03:00:00, 7.8,24.2
2023/08/24 03:10:00, 7.6,24.4
2023/08/24 03:20:00, 7.4,24.0
2023/08/24 03:30:00, 7.5,24.0
2023/08/24 03:40:00, 7.8,24.2
2023/08/24 03:50:00, 8.3,24.0
2023/08/24 04:00:00, 8.2,24.0
2023/08/24 04:10:00, 0.3,23.9
2023/08/24 04:20:00, 0.2,24.1
2023/08/24 04:30:00, 0.2,23.7
2023/08/24 04:40:00, 0.2,24.0
2023/08/24 04:50:00, 0.2,23.8
2023/08/24 05:00:00, 0.3,23.9
2023/08/24 05:10:00, 4.4,23.9
2023/08/24 05:20:00, 8.1,23.8
2023/08/24 05:30:00, 8.0,23.8
2023/08/24 05:40:00, 7.7,23.7
2023/08/24 05:50:00, 7.3,23.7
2023/08/24 06:00:00, 7.2,23.6
2023/08/24 06:10:00, 7.3,24.0
2023/08/24 06:20:00, 7.3,24.4
2023/08/24 06:30:00, 7.3,24.9
2023/08/24 06:40:00, 7.2,25.5
2023/08/24 06:50:00, 7.0,25.8
2023/08/24 07:00:00, 6.7,26.0
2023/08/24 07:10:00, 6.3,26.4
2023/08/24 07:20:00, 6.0,26.6
2023/08/24 07:30:00, 5.6,27.2
2023/08/24 07:40:00, 5.4,27.6
2023/08/24 07:50:00, 5.3,28.1
2023/08/24 08:00:00, 5.3,29.8
2023/08/24 08:10:00, 5.2,32.1
2023/08/24 08:20:00, 5.3,32.5
2023/08/24 08:30:00, 5.6,31.7
2023/08/24 08:40:00, 5.9,31.2
2023/08/24 08:50:00, 6.0,31.3
2023/08/24 09:00:00, 5.9,32.1
2023/08/24 09:10:00, 6.0,33.4
2023/08/24 09:20:00, 6.1,33.3
2023/08/24 09:30:00, 5.8,33.0
2023/08/24 09:40:00, 5.4,32.9
2023/08/24 09:50:00, 5.6,32.4
2023/08/24 10:00:00, 6.0,32.7
2023/08/24 10:10:00, 6.5,32.9
2023/08/24 10:20:00, 6.8,31.4
2023/08/24 10:30:00, 6.4,30.8
2023/08/24 10:40:00, 5.8,31.2
2023/08/24 10:50:00, 5.8,31.2
2023/08/24 11:00:00, 5.7,33.1
2023/08/24 11:10:00, 5.4,33.9
2023/08/24 11:20:00, 5.5,34.4
2023/08/24 11:30:00, 5.5,34.7
2023/08/24 11:40:00, 5.6,34.9
2023/08/24 11:50:00, 5.7,34.6
2023/08/24 12:00:00, 5.3,33.0
2023/08/24 12:10:00, 5.2,32.2
2023/08/24 12:20:00, 5.7,34.3
2023/08/24 12:30:00, 5.6,32.9
2023/08/24 12:40:00, 5.2,32.1
2023/08/24 12:50:00, 5.4,34.1
2023/08/24 13:00:00, 5.5,34.7
2023/08/24 13:10:00, 5.0,35.0
2023/08/24 13:20:00, 5.1,33.1
2023/08/24 13:30:00, 5.0,31.6
2023/08/24 13:40:00, 4.8,31.0
2023/08/24 13:50:00, 4.9,30.3
2023/08/24 14:00:00, 5.0,30.0
2023/08/24 14:10:00, 4.1,30.2
2023/08/24 14:20:00, 3.9,32.5
2023/08/24 14:30:00, 4.1,32.8
2023/08/24 14:40:00, 4.4,33.4
2023/08/24 14:50:00, 4.8,33.7
2023/08/24 15:00:00, 5.1,33.0
2023/08/24 15:10:00, 5.3,32.2
2023/08/24 15:20:00, 4.9,30.5
2023/08/24 15:30:00, 4.4,30.0
2023/08/24 15:40:00, 3.4,29.2
2023/08/24 15:50:00, 2.6,29.0
2023/08/24 16:00:00, 2.5,29.4
2023/08/24 16:10:00, 2.6,30.7
2023/08/24 16:20:00, 2.5,33.0
2023/08/24 16:30:00, 2.8,33.3
2023/08/24 16:40:00, 2.9,34.4
2023/08/24 16:50:00, 3.0,30.5
2023/08/24 17:00:00, 3.0,33.8
2023/08/24 17:10:00, 3.0,30.8
2023/08/24 17:20:00, 3.0,31.8
2023/08/24 17:30:00, 3.1,32.1
2023/08/24 17:40:00, 3.1,29.6
2023/08/24 17:50:00, 3.4,29.5
2023/08/24 18:00:00, 5.0,28.7
2023/08/24 18:10:00, 6.1,28.2
2023/08/24 18:20:00, 6.9,27.9
2023/08/24 18:30:00, 5.2,27.4
2023/08/24 18:40:00, 5.6,27.3
2023/08/24 18:50:00, 4.5,27.0
2023/08/24 19:00:00, 3.7,26.5
2023/08/24 19:10:00, 3.5,26.1
2023/08/24 19:20:00, 3.4,26.0
2023/08/24 19:30:00, 3.4,26.0
2023/08/24 19:40:00, 3.3,25.7
2023/08/24 19:50:00, 3.1,25.4
2023/08/24 20:00:00, 3.0,25.2
2023/08/24 20:10:00, 2.8,25.3
2023/08/24 20:20:00, 2.4,24.8
2023/08/24 20:30:00, 0.9,24.7
2023/08/24 20:40:00, 0.3,24.9
2023/08/24 20:50:00, 0.3,24.6
2023/08/24 21:00:00, 0.4,24.7
2023/08/24 21:10:00, 0.4,24.2
2023/08/24 21:20:00, 0.4,24.4
2023/08/24 21:30:00, 0.3,24.4
2023/08/24 21:40:00, 0.3,24.2
2023/08/24 21:50:00, 0.3,24.0
2023/08/24 22:00:00, 0.3,24.2
2023/08/24 22:10:00, 2.0,24.0
2023/08/24 22:20:00, 1.9,23.9
2023/08/24 22:30:00, 0.9,24.0
2023/08/24 22:40:00, 0.3,25.5
2023/08/24 22:50:00, 0.3,25.2
2023/08/24 23:00:00, 0.3,24.7
2023/08/24 23:10:00, 0.3,24.6
2023/08/24 23:20:00, 0.3,24.6
2023/08/24 23:30:00, 0.3,24.1
2023/08/24 23:40:00, 0.3,24.2
2023/08/24 23:50:00, 0.3,24.0
